Home   Weather   South Bend   Past weeks

Flag for USA Past Weather in South Bend, Indiana, USA — Yesterday and Last 2 Weeks

Now
33 °F

Overcast.


Feels Like: 28 °F
Forecast: 29 / 37 °F
Wind: 6 mph from Southwest

Location: Michiana Regional Airport

Current Time: Dec 3, 2016 at 9:05:27 pm

Latest Report: Dec 3, 2016 at 7:54 pm


Visibility: 10 mi

Pressure: 30.34 "Hg

Humidity: 75%

Dew Point: 26 °F

Location of South BendLocation

Past Weather in South Bend — Graph

°F

South Bend Temperature Yesterday

Maximum temperature yesterday: 37 °F (at 1:01 pm)
Minimum temperature yesterday: 34 °F (at 9:54 pm)
Average temperature yesterday: 36 °F

High & Low Weather Summary for the Past Weeks

 TemperatureHumidityPressure
High59 °F (Nov 18, 8:02 pm)100% (Nov 19, 7:55 am)30.37 "Hg (Nov 19, 7:55 am)
Low28 °F (Nov 21, 8:54 pm)33% (Nov 19, 8:54 pm)29.24 "Hg (Nov 28, 10:01 pm)
Average39 °F73%30.01 "Hg
* Reported Nov 18 8:02 pm — Dec 3 7:54 pm, South Bend, Weather by CustomWeather, © 2016

Note: Actual official high and low records may vary slightly from our data, if they occured in-between our weather recording intervals... More about our weather records

Advertising

South Bend Weather History for the Previous 24 Hours

Scroll right to see more
 ConditionsComfort  
Time TempWeatherWind HumidityBarometerVisibility
7:54 pm
Sat, Dec 3
33 °FOvercast.6 mph75%30.34 "Hg10 mi
6:54 pm33 °FOvercast.6 mph72%30.32 "Hg10 mi
5:54 pm34 °FOvercast.7 mph70%30.33 "Hg10 mi
4:54 pm35 °FOvercast.7 mph67%30.34 "Hg10 mi
3:54 pm35 °FOvercast.7 mph64%30.34 "Hg10 mi
2:54 pm36 °FOvercast.7 mph64%30.34 "Hg10 mi
1:54 pm36 °FOvercast.10 mph64%30.35 "Hg10 mi
12:54 pm35 °FOvercast.7 mph67%30.35 "Hg10 mi
11:54 am35 °FOvercast.3 mph67%30.34 "Hg10 mi
10:54 am34 °FOvercast.3 mph73%30.35 "Hg10 mi
9:54 am33 °FOvercast.5 mph75%30.37 "Hg10 mi
8:54 am33 °FOvercast.5 mph75%30.37 "Hg10 mi
7:54 am33 °FOvercast.6 mph75%30.36 "Hg10 mi
6:54 am34 °FOvercast.8 mph76%30.36 "Hg10 mi
5:54 am34 °FOvercast.5 mph79%30.34 "Hg10 mi
3:54 am34 °FOvercast.5 mph79%30.33 "Hg10 mi
2:54 am34 °FOvercast.No wind79%30.32 "Hg10 mi
1:54 am35 °FOvercast.No wind72%30.32 "Hg10 mi
1:03 am34 °FOvercast.5 mph76%30.30 "Hg10 mi
12:54 am35 °FOvercast.5 mph72%30.32 "Hg10 mi
11:54 pm
Fri, Dec 2
35 °FOvercast.5 mph72%30.32 "Hg10 mi
9:54 pm34 °FOvercast.3 mph79%30.31 "Hg10 mi
Weather by CustomWeather, © 2016

See weather overviewHow to use our weather pages